Weather History for KMLB - February, 2013

Change the Weather History Date:

Tuesday, February 19, 2013

  Actual Average Record
Temperature  
Mean Temperature 64 °F 63 °F  
Max Temperature 80 °F 74 °F 88 °F (1975)
Min Temperature 48 °F 52 °F 33 °F (1958)
Degree Days  
Heating Degree Days 1 4  
Month to date heating degree days 88 88  
Since 1 July heating degree days 280 457  
Cooling Degree Days 0 2  
Month to date cooling degree days 46 38  
Year to date cooling degree days 150 82  
Growing Degree Days 13 (Base 50)    
Moisture  
Dew Point 51 °F    
Average Humidity 66    
Maximum Humidity 93    
Minimum Humidity 39    
Precipitation  
Precipitation T in 0.09 in 2.03 in (1980)
Month to date precipitation 0.89 1.68  
Year to date precipitation 2.55 3.95  
Sea Level Pressure  
Sea Level Pressure 30.15 in    
Wind  
Wind Speed 7 mph (SW)    
Max Wind Speed 20 mph    
Max Gust Speed 24 mph    
Visibility 10 miles    
Events Rain    
T = Trace of Precipitation, MM = Missing Value Source: NWS Daily Summary

Daily Weather History Graph

Daily Weather History Graph

Search for Another Location

Airport or City:

Trip Planner

Search our weather history database for the weather conditions in past years. The results will help you decide how hot, cold, wet, or windy it might be!

Date:

Astronomy

Feb. 19, 2013 Rise Set
Actual Time 6:56 AM EST 6:16 PM EST
Civil Twilight 6:32 AM EST 6:40 PM EST
Nautical Twilight 6:05 AM EST 7:07 PM EST
Astronomical Twilight 5:38 AM EST 7:35 PM EST
Moon 1:01 PM EST (2/19) 2:12 AM EST (2/19)
Length of Visible Light 12h 07m
Length of Day
11h 19m
Waxing Gibbous, 67% of the Moon is Illuminated
Feb 19
Waxing Gibbous
Feb 25
Full
Mar 4
Last Quarter
Mar 11
New
Mar 19
First Quarter

Hourly Weather History & Observations

Time (EST) Temp. Dew Point Humidity Pressure Visibility Wind Dir Wind Speed Gust Speed Precip Events Conditions
12:53 AM 51.1 °F 45.0 °F 80% 30.22 in 10.0 mi SSE 3.5 mph - N/A   Clear
1:53 AM 50.0 °F 45.0 °F 83% 30.21 in 10.0 mi Calm Calm - N/A   Clear
2:53 AM 48.9 °F 46.0 °F 90% 30.20 in 10.0 mi West 3.5 mph - N/A   Scattered Clouds
3:53 AM 50.0 °F 46.9 °F 89% 30.19 in 10.0 mi Calm Calm - N/A   Mostly Cloudy
4:53 AM 51.1 °F 46.9 °F 86% 30.18 in 10.0 mi Calm Calm - N/A   Partly Cloudy
5:53 AM 51.1 °F 48.0 °F 89% 30.19 in 10.0 mi Calm Calm - N/A   Mostly Cloudy
6:53 AM 55.0 °F 52.0 °F 89% 30.19 in 8.0 mi SSE 3.5 mph - 0.00 in Rain Light Rain
7:53 AM 60.1 °F 55.9 °F 86% 30.19 in 10.0 mi South 3.5 mph - 0.00 in   Mostly Cloudy
8:53 AM 66.0 °F 59.0 °F 78% 30.19 in 10.0 mi South 5.8 mph - N/A   Clear
9:53 AM 70.0 °F 55.9 °F 61% 30.21 in 10.0 mi SSW 10.4 mph - N/A   Scattered Clouds
10:53 AM 73.9 °F 52.0 °F 46% 30.20 in 9.0 mi South 15.0 mph 21.9 mph N/A   Clear
11:53 AM 75.9 °F 52.0 °F 43% 30.18 in 10.0 mi SSW 12.7 mph 18.4 mph N/A   Scattered Clouds
1:53 PM 77.0 °F 52.0 °F 42% 30.12 in 9.0 mi SW 15.0 mph 20.7 mph N/A   Mostly Cloudy
2:53 PM 78.1 °F 52.0 °F 40% 30.09 in 10.0 mi SW 15.0 mph 20.7 mph N/A   Partly Cloudy
3:53 PM 78.1 °F 51.1 °F 39% 30.08 in 10.0 mi WSW 12.7 mph - N/A   Partly Cloudy
4:53 PM 77.0 °F 52.0 °F 42% 30.07 in 10.0 mi WSW 10.4 mph - N/A   Partly Cloudy
5:53 PM 75.0 °F 53.1 °F 46% 30.09 in 10.0 mi WSW 8.1 mph - N/A   Clear
7:53 PM 68.0 °F 53.1 °F 59% 30.10 in 10.0 mi WSW 5.8 mph - N/A   Clear
8:53 PM 64.9 °F 53.1 °F 65% 30.12 in 10.0 mi West 4.6 mph - N/A   Clear
9:53 PM 64.0 °F 53.1 °F 67% 30.12 in 10.0 mi West 4.6 mph - N/A   Clear
10:53 PM 59.0 °F 51.1 °F 75% 30.11 in 10.0 mi West 5.8 mph - N/A   Clear
11:53 PM 60.1 °F 53.1 °F 78% 30.10 in 10.0 mi SW 3.5 mph - N/A   Clear